Weather in Rilsk

Russia / Kursk Oblast     51°34′17″N   34°40′59″E
temp.,
°C
wind,
m/s
gust,
m/s
humid.,
%
clouds,
%
prec.,
mm/h
press.,
hPa
HPBL,
m
6 august, fri
fri600:00+17ese5128989 2.1 1011242
03:00+17se38827 2.4 1010147
06:00+17se4117989 0.0 1010190
09:00+23sse595578 0.0 1009358
12:00+30sse673426 0.0 10071390
15:00+32sse572748 0.0 10052573
18:00+31ssw36325 0.0 1004176
21:00+23ssw365223 0.1 100593
7 august, sat
sat700:00+18nnw3891100 0.9 1008224
03:00+18e2595100 4.6 1007115
06:00+18ese51192100 1.3 1007233
09:00+22s4875100 2.2 1008729
12:00+24wsw2367100 0.5 1008892
15:00+26w2259100 0.6 10091323
18:00+24nw1271100 0.3 1010173
21:00+19nw410557 0.3 1011177
8 august, sun
sun800:00+18nnw2463100 0.0 101372
03:00+17nne2571100 0.0 101496
06:00+15n3675100 0.0 1015115
09:00+20n4558100 0.0 1015364
12:00+25n454484 0.0 1015911
15:00+27ne33385 0.0 10151310
18:00+26nne33424 0.0 10151000
21:00+21ne33560 0.0 101622
9 august, mon
mon900:00+19nne34630 0.0 101759
03:00+18nne35690 0.0 101782
06:00+17nne37710 0.0 1017128
09:00+24ne46560 0.0 1017337
12:00+29ne45395 0.0 10171120
15:00+31ne553222 0.0 10162069
18:00+29ne344124 0.0 1016687
21:00+21e476132 0.2 1017103
10 august, tue
tue1000:00+21ene1160100 0.0 101722
03:00+19ne226432 0.0 101713
06:00+19ne347092 0.0 101774
09:00+23ene4566100 0.0 1016513
12:00+26ne4554100 0.0 10151167
15:00+25ne6657100 0.0 10151074
18:00+23ne6768100 0.0 1014721
21:00+18ne3690100 0.0 1014145